STARLINK-32078, 60338

Orbit data source: Space-Track

STARLINK-32078, 60338 is a payload satellite owned by SpaceX/Seattle (US) in LEO that was launched on Fri, 02 Aug 2024 UTC via an FALCON 9 launch vehicle from the Air Force Eastern Test Range (AFETR). Payload-class satellites include a variety of spacecraft equipped with specific instruments for various scientific and technological missions. These include communications satellites like Starlink; space stations such as the ISS; scientific satellites like the Hubble; Earth observation satellites from companies like Planet Labs, Umbra, and HawkEye 360; GPS; miniature CubeSats for education and research; and military/defense satellites.

Loading next visibility...
Identifier
60338, 2024-136K
Orbit
LEO
Last TLE update
1 day ago
Origin
Manufacturer
SpaceX/Seattle
Mission
Operational Commercial Communications
Bus & Motor
STARLINK V2M, Unknown motor
Mass
730 kg wet, ~700 kg dry
Launch date (UTC)
2024-08-02 (9 months ago)
Launch vehicle
FALCON 9
Launch site
Air Force Eastern Test Range (AFETR)
Object type
Payload
Rocket body
Debris
Shape & HBR
Box + 2 Pan, 29 m
Radar Cross Section
33.884 m², Large (>1 m²)

Expand to show TLE details & history

TLE from 1 day ago
0 STARLINK-32078
1 60338U 24136K   25118.93671758 -.00005393  00000-0 -16998-3 0  9997
2 60338  53.1594  97.7202 0001274 106.0756 254.0385 15.30222160 41470
Epoch: 2025-04-28T22:28Z
Definitive object data (Epoch: 2025-04-28T22:28:52.398Z)
Latitude
-0.00005°
Longitude
-96.64175°
Altitude
476.289 km
Speed
7.629 km/s
True Right ascension
06h 30m 52s
True Declination
0° 00' 00"
Sunlit
Object was in daylight at TLE epoch
Visualization TLE readout
Latitude
41.59337°
Longitude
36.69245°
Altitude
478.268 km
Speed
7.632 km/s
Apparent Right ascension
18h 13m 20s
Apparent Declination
3° 36' 30"
Sunlit
Object is in full shadow
Visualization observer readout
Local Sidereal Time
09:12:43
Azimuth
54.485° ENE
Elevation
-30.154°
Doppler factor
1
Orbital elements
Apogee altitude
476.279 km
Perigee altitude
474.532 km
Semi-major axis
6,853.542 km
Eccentricity
0.0001274
Inclination
53.1594°
RAAN
97.7202°
Arg. of periapsis
106.0756°
True anomaly
254.02446°
Mean anomaly
254.0385°
Eccentric anomaly
254.03148°
Mean motion
3.82534 °/min
BSTAR
-0.00016998
Orbital period
94.11 mins
Loading maneuver chart data...
Loading SW <> Apogee altitude chart data...
Loading historical data...
Loading historical data...
Loading historical data...
Loading historical data...
Loading historical data...
Loading historical data...
Loading historical data...

STARLINK-32078 Visibility forecast

Observer location: undefined°, undefined°

Span
Click to sort rows by Start time (UTC) header in descending order
Start Az.
Max El. time (UTC)
Max El. Az.
Max El.
End time (UTC)
End Az.
4 mins2025-04-30 02:58:09.813Z299.947° NW2025-04-30 03:00:09.813Z334.113° NNW15.94°2025-04-30 03:02:09.813Z11.951° NNE
4 mins2025-04-30 06:17:09.813Z350.794° N2025-04-30 06:19:09.813Z31.713° NE17.269°2025-04-30 06:21:09.813Z65.993° ENE
5 mins2025-04-30 07:55:09.813Z309.795° NW2025-04-30 07:57:09.813Z140.581° SSE44.884°2025-04-30 08:00:09.813Z131.405° SE
6 mins2025-05-01 00:49:09.813Z230.535° WSW2025-05-01 00:52:09.813Z241.742° WSW43.572°2025-05-01 00:55:09.813Z48.758° ENE
|